Content
SEND FEEDBACK

Daily
Averages
Monthly
Summary
Canada

BANCROFT, ONTARIO


Home > North America > Canada > Ontario
Elevation: 1073 feet     Latitude: 45 01N     Longitude: 077 54W

WEATHER
 
SELECT A DAY
Number of Records: 132,584;   Date Range: 12/29/99 - 9/18/14
 
SHARE

PRINT THIS DATA

[ ← Previous Day ]
WEATHER ALMANAC - JANUARY 31, 2013
[ Next Day → ]
[ °C ]   °F
Weather ElementAverageHighLow
Temperature21.8 °F46.4 °F (1:00 am)6.8 °F (11:00 pm)
Dewpoint15.6 °F46.4 °F (1:00 am)-1.1 °F (11:00 pm)
Humidity76.2 %100 % (1:00 am)46 % (1:00 pm)
Barometer29.23 in29.64 in (11:00 pm)28.88 in (2:00 am)
Wind Speed8.5 mph12.7 mph (6:00 am)
Wind Gust29.9 mph (6:00 am)
Weather ElementAverage
Wind DirectionWNW (290.7 °)

Weather ElementTotal
Precipitation0.38 in
Heating Degree Days38.4 (Base 65)
Averaged from 27 records on January 31, 2013
WEATHER CONDITIONS BREAKOUT
WIND DIRECTION BREAKOUT
WEATHER BY HOUR - JANUARY 31, 2013
[ °C ]   °F
Local TimeTemperatureDewpointHumidityBarometerVisibilityWind DirectionWind SpeedGust SpeedPrecipitationEventsConditions
1:00 AM46.0 °F46.0 °F100 %28.94 inSSW (200°)4.6 mph
1:00 AM46.4 °F46.4 °F100 %28.94 inSSW (200°)4.6 mph0.05 in
2:00 AM45.5 °F45.5 °F100 %28.88 inSSW (210°)4.6 mph0.16 in
3:00 AM39.2 °F39.2 °F100 %28.91 inWest (280°)4.6 mph0.11 in
4:00 AM37.2 °F37.2 °F100 %28.92 inWSW (250°)4.6 mph0.02 in
5:00 AM34.7 °F34.7 °F100 %28.92 inWSW (250°)9.2 mph23.0 mph0.01 in
6:00 AM31.1 °F29.7 °F94 %28.96 inWest (270°)12.7 mph29.9 mph0.03 in
7:00 AM27.0 °F23.0 °F78 %29.02 inWest (260°)10.4 mph
7:00 AM27.1 °F22.8 °F84 %29.02 inWest (260°)10.4 mph25.3 mph
8:00 AM24.6 °F18.7 °F78 %29.07 inWest (270°)9.2 mph19.6 mph
9:00 AM22.3 °F14.9 °F73 %29.12 inNorth (360°)11.5 mph24.2 mph
10:00 AM20.7 °F12.9 °F72 %29.16 inNorth (360°)8.1 mph18.4 mph
11:00 AM19.2 °F11.3 °F71 %29.20 inNorth (360°)10.4 mph25.3 mph
12:00 PM18.3 °F8.8 °F66 %29.22 inNorth (360°)8.1 mph18.4 mph
1:00 PM17.0 °F5.0 °F46 %29.26 inNorth12.7 mph
1:00 PM16.7 °F5.2 °F61 %29.26 inNorth (360°)12.7 mph27.6 mph
2:00 PM13.5 °F3.7 °F65 %29.32 inNorth (360°)12.7 mph26.5 mph
3:00 PM13.1 °F2.5 °F63 %29.37 inNorth (360°)11.5 mph26.5 mph
4:00 PM13.3 °F3.0 °F64 %29.41 inNorth (360°)6.9 mph
5:00 PM12.2 °F3.6 °F68 %29.45 inNorth (360°)6.9 mph
6:00 PM10.9 °F2.1 °F68 %29.49 inNorth (360°)6.9 mph19.6 mph
7:00 PM10.0 °F2.0 °F56 %29.52 inNorth8.1 mph
7:00 PM10.2 °F1.6 °F68 %29.52 inNorth (360°)8.1 mph
8:00 PM9.9 °F2.3 °F71 %29.55 inNorth (360°)8.1 mph17.3 mph
9:00 PM8.6 °F0.9 °F71 %29.58 inNorth (360°)5.8 mph
10:00 PM8.1 °F0.5 °F71 %29.61 inNorth (360°)8.1 mph
11:00 PM6.8 °F-1.1 °F70 %29.64 inNorth (360°)6.9 mph
Hourly data recorded from CWRK, located miles away from Bancroft, Ontario







STORIES FROM OUR PARTNERS